This is the latest recevied weather packets stored in our database for station/object GBTWP-2. If no packets are shown the sender has not sent any weather packets the latest 10 day(s).
| Time | Temp. | Humidity | Pressure | Rain* | Wind** | Luminosity | Snow |
|---|---|---|---|---|---|---|---|
| 1777597805 | 6.67° C | 69% | 1016.4 hPa | 0 mm | - | 0 W/m² | - |
| 1777597502 | 7.22° C | 66% | 1016.4 hPa | 0 mm | - | 0 W/m² | - |
| 1777597206 | 7.22° C | 63% | 1016.5 hPa | 0 mm | - | 0 W/m² | - |
| 1777596605 | 7.78° C | 57% | 1016.3 hPa | 0 mm | - | 0 W/m² | - |
| 1777596305 | 8.33° C | 56% | 1016.2 hPa | 0 mm | - | 0 W/m² | - |
| 1777595406 | 8.89° C | 52% | 1016.1 hPa | 0 mm | - | 2 W/m² | - |
| 1777595101 | 9.44° C | 51% | 1016.2 hPa | 0 mm | - | 3 W/m² | - |
| 1777594502 | 9.44° C | 48% | 1016.2 hPa | 0 mm | - | 5 W/m² | - |
| 1777594205 | 9.44° C | 46% | 1016.1 hPa | 0 mm | - | 6 W/m² | - |
| 1777593606 | 9.44° C | 43% | 1016 hPa | 0 mm | - | 10 W/m² | - |
| 1777593306 | 9.44° C | 43% | 1016.1 hPa | 0 mm | - | 11 W/m² | - |
| 1777592705 | 10° C | 45% | 1016.1 hPa | 0 mm | - | 18 W/m² | - |
| 1777592405 | 10° C | 46% | 1016 hPa | 0 mm | - | 21 W/m² | - |
| 1777591502 | 10° C | 43% | 1016.1 hPa | 0 mm | - | 22 W/m² | - |
| 1777590605 | 10° C | 47% | 1016.1 hPa | 0 mm | - | 32 W/m² | - |
| 1777590305 | 10° C | 45% | 1016 hPa | 0 mm | - | 33 W/m² | - |
| 1777590005 | 10° C | 45% | 1016 hPa | 0 mm | - | 35 W/m² | - |
| 1777589705 | 10.56° C | 45% | 1016.1 hPa | 0 mm | - | 40 W/m² | - |
| 1777589405 | 10.56° C | 48% | 1016 hPa | 0 mm | - | 45 W/m² | - |
| 1777589105 | 10° C | 47% | 1016.3 hPa | 0 mm | - | 44 W/m² | - |
| 1777588806 | 10° C | 44% | 1016.3 hPa | 0 mm | - | 43 W/m² | - |
| 1777587905 | 10° C | 47% | 1016.3 hPa | 0 mm | - | 44 W/m² | - |
| 1777587302 | 10° C | 46% | 1016.3 hPa | 0 mm | - | 47 W/m² | - |
| 1777587005 | 10° C | 46% | 1016.3 hPa | 0 mm | - | 56 W/m² | - |
| 1777585206 | 10.56° C | 46% | 1016.2 hPa | 0 mm | - | 73 W/m² | - |
* Rain latest hour (hover to see other rain measurements)
** Current wind speed in m/s (hover to see current wind gust speed)